{"data":{"norad_id":63510,"intl_designator":"2025-071T","name":"STARLINK-33764","alt_names":[],"object_type":"PAYLOAD","status":"ACTIVE","operator":null,"country":"US","launch_date":"2025-04-07","launch_site_code":"AFWTR","launch_vehicle":null,"mission":null,"orbit_class":"UNKNOWN","rcs_meters":null,"size_class":null,"mass_kg":null,"dimensions":null,"purposes":["comms"],"wikipedia_slug":null,"has_3d_model":false,"image_url":null,"decayed_at":null,"tle_current":{"epoch":"2026-09-20T20:35:05.717184Z","epoch_age_seconds":124813,"freshness":"FRESH","line1":"1 63510U 25071T   26263.85770506  .00008994  00000+0  27703-3 0  9998","line2":"2 63510  53.1593 311.7518 0001235  79.7850 280.3292 15.34396784 82653","mean_motion":15.34396784,"eccentricity":0.0001235,"inclination_deg":53.1593,"raan_deg":311.7518,"arg_perigee_deg":79.785,"mean_anomaly_deg":280.3292,"bstar":0.00027703,"rev_number":8265,"period_min":93.847954780385,"perigee_km":461.86795390338,"apogee_km":463.5576438037,"semimajor_km":6840.8497988535,"source":"CELESTRAK","updated_at":"2026-09-21T09:00:35.016731Z"}}}